�������C�����ː����j�^�v���󋵏��
Date,Time,Cs137(Bq/L),Cs134(Bq/L),�S��(Bq/L)
2019/07/16,00:00,0.50,ND,ND
2019/07/16,00:10,0.49,ND,ND
2019/07/16,00:20,0.47,ND,11
2019/07/16,00:30,0.47,ND,11
2019/07/16,00:40,0.45,ND,12
2019/07/16,00:50,0.44,ND,11
2019/07/16,01:00,0.43,ND,13
2019/07/16,01:10,0.45,ND,12
2019/07/16,01:20,0.45,ND,12
2019/07/16,01:30,0.43,ND,11
2019/07/16,01:40,0.45,ND,8.9
2019/07/16,01:50,0.46,ND,10
2019/07/16,02:00,0.46,ND,ND
2019/07/16,02:10,0.46,ND,ND
2019/07/16,02:20,0.46,ND,ND
2019/07/16,02:30,0.47,ND,ND
2019/07/16,02:40,0.46,ND,ND
2019/07/16,02:50,0.47,ND,ND
2019/07/16,03:00,0.46,ND,ND
2019/07/16,03:10,0.46,ND,ND
2019/07/16,03:20,0.43,ND,ND
2019/07/16,03:30,0.45,ND,ND
2019/07/16,03:40,0.46,ND,ND
2019/07/16,03:50,0.49,ND,ND
2019/07/16,04:00,0.54,ND,ND
2019/07/16,04:10,0.56,ND,ND
2019/07/16,04:20,0.61,ND,ND
2019/07/16,04:30,0.62,ND,ND
2019/07/16,04:40,0.60,ND,9.6
2019/07/16,04:50,0.59,ND,11
2019/07/16,05:00,0.57,ND,ND
2019/07/16,05:10,0.51,ND,10
2019/07/16,05:20,0.51,ND,ND
2019/07/16,05:30,0.50,ND,ND
2019/07/16,05:40,0.53,ND,ND
2019/07/16,05:50,0.57,ND,ND
2019/07/16,06:00,0.59,ND,ND
2019/07/16,06:10,0.62,ND,ND
2019/07/16,06:20,0.65,ND,ND
2019/07/16,06:30,0.67,ND,ND
2019/07/16,06:40,0.65,ND,ND
2019/07/16,06:50,0.69,ND,ND
2019/07/16,07:00,0.70,ND,ND
2019/07/16,07:10,0.71,ND,ND
2019/07/16,07:20,0.70,ND,ND
2019/07/16,07:30,0.72,ND,ND
2019/07/16,07:40,0.70,ND,ND
2019/07/16,07:50,0.75,ND,ND
2019/07/16,08:00,0.70,ND,ND
2019/07/16,08:10,0.77,ND,ND
2019/07/16,08:20,0.79,ND,ND
2019/07/16,08:30,0.74,ND,9.6
2019/07/16,08:40,0.75,ND,9.0
2019/07/16,08:50,0.75,ND,ND
2019/07/16,09:00,0.74,ND,ND
2019/07/16,09:10,0.76,ND,ND
2019/07/16,09:20,0.74,ND,ND
2019/07/16,09:30,0.75,ND,ND
2019/07/16,09:40,0.76,ND,ND
2019/07/16,09:50,0.74,ND,ND
2019/07/16,10:00,0.76,ND,8.9
2019/07/16,10:10,0.77,ND,ND
2019/07/16,10:20,0.73,ND,ND
2019/07/16,10:30,0.72,ND,ND
2019/07/16,10:40,-,-,-
2019/07/16,10:50,-,-,-
2019/07/16,11:00,-,-,-
2019/07/16,11:10,-,-,-
2019/07/16,11:20,-,-,-
2019/07/16,11:30,-,-,-
2019/07/16,11:40,-,-,-
2019/07/16,11:50,-,-,-
2019/07/16,12:00,-,-,-
2019/07/16,12:10,-,-,-
2019/07/16,12:20,-,-,-
2019/07/16,12:30,-,-,-
2019/07/16,12:40,-,-,-
2019/07/16,12:50,0.62,ND,ND
2019/07/16,13:00,0.61,ND,ND
2019/07/16,13:10,0.62,ND,ND
2019/07/16,13:20,0.63,ND,ND
2019/07/16,13:30,0.61,ND,ND
2019/07/16,13:40,0.61,ND,ND
2019/07/16,13:50,0.59,ND,ND
2019/07/16,14:00,0.58,ND,ND
2019/07/16,14:10,0.56,ND,ND
2019/07/16,14:20,0.54,ND,9.6
2019/07/16,14:30,0.54,ND,11
2019/07/16,14:40,0.52,ND,ND
2019/07/16,14:50,0.51,ND,9.6
2019/07/16,15:00,0.48,ND,ND
2019/07/16,15:10,0.47,ND,9.7
2019/07/16,15:20,0.46,ND,ND
2019/07/16,15:30,0.44,ND,ND
2019/07/16,15:40,0.43,ND,ND
2019/07/16,15:50,0.41,ND,ND
2019/07/16,16:00,0.42,ND,ND
2019/07/16,16:10,0.43,ND,ND
2019/07/16,16:20,0.48,ND,ND
2019/07/16,16:30,0.46,ND,ND
2019/07/16,16:40,0.47,ND,ND
2019/07/16,16:50,0.48,ND,ND
2019/07/16,17:00,0.49,ND,ND
2019/07/16,17:10,0.51,ND,ND
2019/07/16,17:20,0.47,ND,ND
2019/07/16,17:30,0.49,ND,ND
2019/07/16,17:40,0.51,ND,ND
2019/07/16,17:50,0.51,ND,ND
2019/07/16,18:00,0.53,ND,ND
2019/07/16,18:10,0.53,ND,ND
2019/07/16,18:20,0.54,ND,ND
2019/07/16,18:30,0.58,ND,ND
2019/07/16,18:40,0.59,ND,ND
2019/07/16,18:50,0.62,ND,10
2019/07/16,19:00,0.65,ND,11
2019/07/16,19:10,0.64,ND,15
2019/07/16,19:20,0.65,ND,15
2019/07/16,19:30,0.61,ND,14
2019/07/16,19:40,0.59,ND,12
2019/07/16,19:50,0.57,ND,9.9
2019/07/16,20:00,0.51,ND,8.9
2019/07/16,20:10,0.52,ND,ND
2019/07/16,20:20,0.53,ND,ND
2019/07/16,20:30,0.54,ND,ND
2019/07/16,20:40,0.55,ND,ND
2019/07/16,20:50,0.56,ND,ND
2019/07/16,21:00,0.58,ND,ND
2019/07/16,21:10,0.57,ND,ND
2019/07/16,21:20,0.54,ND,ND
2019/07/16,21:30,0.59,ND,ND
2019/07/16,21:40,0.58,ND,9.7
2019/07/16,21:50,0.55,ND,11
2019/07/16,22:00,0.55,ND,10
2019/07/16,22:10,0.58,ND,12
2019/07/16,22:20,0.62,ND,13
2019/07/16,22:30,0.62,ND,ND
2019/07/16,22:40,0.64,ND,ND
2019/07/16,22:50,0.69,ND,ND
2019/07/16,23:00,0.71,ND,ND
2019/07/16,23:10,0.70,ND,ND
2019/07/16,23:20,0.74,ND,ND
2019/07/16,23:30,0.77,ND,ND
2019/07/16,23:40,0.79,ND,ND
2019/07/16,23:50,0.72,ND,ND
